QPF
0.00 0.00 0.00 0.00 0.00 0.00 0.00 0.00 0.00 0.00 0.00 0.00 0.00 0.00 0.00 0.00 0.00 0.00 0.00 0.00 0.00 0.00 0.00 0.00 0.00 0.00 0.00 0.00 0.00 0.00 0.00 0.00 0.00 0.00 0.00 0.00 0.00 0.00 0.00 0.00 0.00 0.00 0.00 0.00 0.00
0.00 0.00 0.00 0.00 0.00 0.00 0.00 0.00 0.00 0.00 0.00 0.00 0.00 0.00 0.00 0.00 0.00 0.00 0.00 0.00 0.00 0.00 0.00 0.00 0.00 0.00 0.00 0.00 0.00 0.00 0.00 0.00 0.00 0.00 0.00 0.00 0.00 0.00 0.00 0.00 0.00 0.00 0.00 0.00 0.00
0.00 0.00 0.00 0.00 0.00 0.00 0.00 0.00 0.00 0.00 0.00 0.00 0.00 0.00 0.00 0.00 0.00 0.00 0.00 0.00 0.00 0.00 0.00 0.00 0.00 0.00 0.00 0.00 0.00 0.00 0.00 0.00 0.00 0.00 0.00 0.00 0.00 0.00 0.00 0.00 0.00 0.00 0.00 0.00 0.00
0.00 0.00 0.00 0.00 0.00 0.00 0.00 0.00 0.00 0.00 0.00 0.00 0.00 0.00 0.00 0.00 0.00 0.00 0.00 0.00 0.00 0.00 0.00 0.00 0.00 0.00 0.00 0.00 0.00 0.00 0.00 0.00 0.00 0.00 0.00 0.00 0.00 0.00 0.00 0.00 0.00 0.00 0.00 0.00 0.00
0.00 0.00 0.00 0.00 0.00 0.00 0.00 0.00 0.00 0.00 0.00 0.00 0.00 0.00 0.00 0.00 0.00 0.00 0.00 0.00 0.00 0.00 0.00 0.00 0.00 0.00 0.00 0.00 0.00 0.00 0.00 0.00 0.00 0.00 0.00 0.00 0.00 0.00 0.00 0.00 0.00 0.00 0.00 0.00 0.00
0.00 0.00 0.00 0.00 0.00 0.00 0.00 0.00 0.00 0.00 0.00 0.00 0.00 0.00 0.00 0.00 0.00 0.00 0.00 0.00 0.00 0.00 0.00 0.00 0.00 0.00 0.00 0.00 0.00 0.00 0.00 0.00 0.00 0.00 0.00 0.00 0.00 0.00 0.00 0.00 0.00 0.00 0.00 0.00 0.00
0.00 0.00 0.00 0.00 0.00 0.00 0.00 0.00 0.00 0.00 0.00 0.00 0.00 0.00 0.00 0.00 0.00 0.00 0.00 0.00 0.00 0.00 0.00 0.00 0.00 0.00 0.00 0.00 0.00 0.00 0.00 0.00 0.00 0.00 0.00 0.00 0.00 0.00 0.00 0.00 0.00 0.00 0.00 0.00 0.00
0.00 0.00 0.00 0.00 0.00 0.00 0.00 0.00 0.00 0.00 0.00 0.00 0.00 0.00 0.00 0.00 0.00 0.00 0.00 0.00 0.00 0.00 0.00 0.00 0.00 0.00 0.00 0.00 0.00 0.00 0.00 0.00 0.00 0.00 0.00 0.00 0.00 0.00 0.00 0.00 0.00 0.00 0.00 0.00 0.00
0.00 0.00 0.00 0.00 0.00 0.00 0.00 0.00 0.00 0.00 0.00 0.00 0.00 0.00 0.00 0.00 0.00 0.00 0.00 0.00 0.00 0.00 0.00 0.00 0.00 0.00 0.00 0.00 0.00 0.00 0.00 0.00 0.00 0.00 0.00 0.00 0.00 0.00 0.00 0.00 0.00 0.00 0.00 0.00 0.00
0.00 0.00 0.00 0.00 0.00 0.00 0.00 0.00 0.00 0.00 0.00 0.00 0.00 0.00 0.00 0.00 0.00 0.00 0.00 0.00 0.00 0.00 0.00 0.00 0.00 0.00 0.00 0.00 0.00 0.00 0.00 0.00 0.00 0.00 0.00 0.00 0.00 0.00 0.00 0.00 0.00 0.00 0.00 0.00 0.00
0.00 0.00 0.00 0.00 0.00 0.00 0.00 0.00 0.00 0.00 0.00 0.00 0.00 0.00 0.00 0.00 0.00 0.00 0.00 0.00 0.00 0.00 0.00 0.00 0.00 0.00 0.00 0.00 0.00 0.00 0.00 0.00 0.00 0.00 0.00 0.00 0.00 0.00 0.00 0.00 0.00 0.00 0.00 0.00 0.00
0.00 0.00 0.00 0.00 0.00 0.00 0.00 0.00 0.00 0.00 0.00 0.00 0.00 0.00 0.00 0.00 0.00 0.00 0.00 0.00 0.00 0.00 0.00 0.00 0.00 0.00 0.00 0.00 0.00 0.00 0.00 0.00 0.00 0.00 0.00 0.00 0.00 0.00 0.00 0.00 0.00 0.00 0.00 0.00 0.00
0.00 0.00 0.00 0.00 0.00 0.00 0.00 0.00 0.00 0.00 0.00 0.00 0.00 0.00 0.00 0.00 0.00 0.00 0.00 0.00 0.00 0.00 0.00 0.00 0.00 0.00 0.00 0.00 0.00 0.00 0.00 0.00 0.00 0.00 0.00 0.00 0.00 0.00 0.00 0.00 0.00 0.00 0.00 0.00 0.00
0.00 0.00 0.00 0.00 0.00 0.00 0.00 0.00 0.00 0.00 0.00 0.00 0.00 0.00 0.00 0.00 0.00 0.00 0.00 0.00 0.00 0.00 0.00 0.00 0.00 0.00 0.00 0.00 0.00 0.00 0.00 0.00 0.00 0.00 0.00 0.00 0.00 0.00 0.00 0.00 0.00 0.00 0.00 0.00 0.00
0.00 0.00 0.00 0.00 0.00 0.00 0.00 0.00 0.00 0.00 0.00 0.00 0.00 0.00 0.00 0.00 0.00 0.00 0.00 0.00 0.00 0.00 0.00 0.00 0.00 0.00 0.00 0.00 0.00 0.00 0.00 0.00 0.00 0.00 0.00 0.00 0.00 0.00 0.00 0.00 0.00 0.00 0.00 0.00 0.00
0.00 0.00 0.00 0.00 0.00 0.00 0.00 0.00 0.00 0.00 0.00 0.00 0.00 0.00 0.00 0.00 0.00 0.00 0.00 0.00 0.00 0.00 0.00 0.00 0.00 0.00 0.00 0.00 0.00 0.00 0.00 0.00 0.00 0.00 0.00 0.00 0.00 0.00 0.00 0.00 0.00 0.00 0.00 0.00 0.00
0.00 0.00 0.00 0.00 0.00 0.00 0.00 0.00 0.00 0.00 0.00 0.00 0.00 0.00 0.00 0.00 0.00 0.00 0.00 0.00 0.00 0.00 0.00 0.00 0.00 0.00 0.00 0.00 0.00 0.00 0.00 0.00 0.00 0.00 0.00 0.00 0.00 0.00 0.00 0.00 0.00 0.00 0.00 0.00 0.00
0.00 0.00 0.00 0.00 0.00 0.00 0.00 0.00 0.00 0.00 0.00 0.00 0.00 0.00 0.00 0.00 0.00 0.00 0.00 0.00 0.00 0.00 0.00 0.00 0.00 0.00 0.00 0.00 0.00 0.00 0.00 0.00 0.00 0.00 0.00 0.00 0.00 0.00 0.00 0.00 0.00 0.00 0.00 0.00 0.00
0.00 0.00 0.00 0.00 0.00 0.00 0.00 0.00 0.00 0.00 0.00 0.00 0.00 0.00 0.00 0.00 0.00 0.00 0.00 0.00 0.00 0.00 0.00 0.00 0.00 0.00 0.00 0.00 0.00 0.00 0.00 0.00 0.00 0.00 0.00 0.00 0.00 0.00 0.00 0.00 0.00 0.00 0.00 0.00 0.00
0.00 0.00 0.00 0.00 0.00 0.00 0.00 0.00 0.00 0.00 0.00 0.00 0.00 0.00 0.00 0.00 0.00 0.00 0.00 0.00 0.00 0.00 0.00 0.00 0.00 0.00 0.00 0.00 0.00 0.00 0.00 0.00 0.00 0.00 0.00 0.00 0.00 0.00 0.00 0.00 0.00 0.00 0.00 0.00 0.00
0.00 0.00 0.00 0.00 0.00 0.00 0.00 0.00 0.00 0.00 0.00 0.00 0.00 0.00 0.00 0.00 0.00 0.00 0.00 0.00 0.00 0.00 0.00 0.00 0.00 0.00 0.00 0.00 0.00 0.00 0.00 0.00 0.00 0.00 0.00 0.00 0.00 0.00 0.00 0.00 0.00 0.00 0.00 0.00 0.00
0.00 0.00 0.00 0.00 0.00 0.00 0.00 0.00 0.00 0.00 0.00 0.00 0.00 0.00 0.00 0.00 0.00 0.00 0.00 0.00 0.00 0.00 0.00 0.00 0.00 0.00 0.00 0.00 0.00 0.00 0.00 0.00 0.00 0.00 0.00 0.00 0.00 0.00 0.00 0.00 0.00 0.00 0.00 0.00 0.00
0.00 0.00 0.00 0.00 0.00 0.00 0.00 0.00 0.00 0.00 0.00 0.00 0.00 0.00 0.00 0.00 0.00 0.00 0.00 0.00 0.00 0.00 0.00 0.00 0.00 0.00 0.00 0.00 0.00 0.00 0.00 0.00 0.00 0.00 0.00 0.00 0.00 0.00 0.00 0.00 0.00 0.00 0.00 0.00 0.00
0.00 0.00 0.00 0.00 0.00 0.00 0.00 0.00 0.00 0.00 0.00 0.00 0.00 0.00 0.00 0.00 0.00 0.00 0.00 0.00 0.00 0.00 0.00 0.00 0.00 0.00 0.00 0.00 0.00 0.00 0.00 0.00 0.00 0.00 0.00 0.00 0.00 0.00 0.00 0.00 0.00 0.00 0.00 0.00 0.00
0.00 0.00 0.00 0.00 0.00 0.00 0.00 0.00 0.00 0.00 0.00 0.00 0.00 0.00 0.00 0.00 0.00 0.00 0.00 0.00 0.00 0.00 0.00 0.00 0.00 0.00 0.00 0.00 0.00 0.00 0.00 0.00 0.00 0.00 0.00 0.00 0.00 0.00 0.00 0.00 0.00 0.00 0.00 0.00 0.00
0.00 0.00 0.00 0.00 0.00 0.00 0.00 0.00 0.00 0.00 0.00 0.00 0.00 0.00 0.00 0.00 0.00 0.00 0.00 0.00 0.00 0.00 0.00 0.00 0.00 0.00 0.00 0.00 0.00 0.00 0.00 0.00 0.00 0.00 0.00 0.00 0.00 0.00 0.00 0.00 0.00 0.00 0.00 0.00 0.00
0.00 0.00 0.00 0.00 0.00 0.00 0.00 0.00 0.00 0.00 0.00 0.00 0.00 0.00 0.00 0.00 0.00 0.00 0.00 0.00 0.00 0.00 0.00 0.00 0.00 0.00 0.00 0.00 0.00 0.00 0.00 0.00 0.00 0.00 0.00 0.00 0.00 0.00 0.00 0.00 0.00 0.00 0.00 0.00 0.00
MSLP
1016.22 1015.84 1015.45 1015.11 1014.77 1014.27 1013.78 1013.23 1012.72 1012.22 1011.87 1011.46 1011.01 1010.56 1010.12 1009.61 1008.70 1008.13 1006.75 1005.59 1005.40 1005.30 1005.81 1006.28 1006.38 1006.14 1006.15 1005.64 1005.35 1005.30 1005.02 1005.04 1005.38 1005.82 1006.69 1007.42 1007.72 1008.36 1008.78 1009.13 1009.81 1010.33 1010.59 1011.21 1012.64
1016.28 1015.91 1015.38 1014.91 1014.62 1014.15 1013.58 1013.13 1012.67 1012.13 1011.76 1011.36 1011.00 1010.50 1010.01 1009.66 1008.71 1007.00 1005.46 1005.22 1005.24 1005.39 1005.37 1005.43 1005.30 1005.34 1005.16 1005.02 1004.98 1004.71 1004.86 1004.88 1005.17 1005.65 1006.51 1007.26 1007.69 1008.23 1008.73 1009.21 1010.19 1010.73 1011.27 1012.08 1012.94
1016.36 1015.89 1015.37 1014.93 1014.44 1014.02 1013.54 1012.97 1012.56 1012.11 1011.65 1011.23 1010.79 1010.25 1009.67 1009.49 1008.03 1005.94 1005.21 1005.03 1004.97 1005.41 1005.18 1004.99 1005.01 1004.83 1004.56 1004.55 1004.47 1004.60 1004.66 1005.05 1005.42 1005.78 1006.46 1007.29 1007.84 1008.26 1008.57 1008.84 1009.58 1010.54 1011.16 1012.14 1012.85
1016.25 1015.77 1015.40 1014.97 1014.44 1013.92 1013.48 1012.96 1012.50 1012.08 1011.55 1011.06 1010.67 1010.21 1009.50 1008.95 1007.29 1005.53 1005.29 1004.85 1004.90 1005.17 1005.06 1004.67 1004.48 1004.34 1004.31 1004.12 1004.28 1004.25 1004.79 1005.08 1006.03 1006.44 1006.68 1007.35 1007.85 1008.31 1008.82 1009.20 1009.41 1010.60 1011.40 1011.96 1012.47
1016.37 1015.86 1015.36 1014.85 1014.33 1013.80 1013.24 1012.77 1012.46 1011.88 1011.47 1011.02 1010.51 1010.10 1009.28 1008.20 1006.19 1005.26 1005.29 1005.17 1005.19 1005.27 1004.69 1004.42 1004.10 1004.19 1004.13 1004.13 1004.15 1004.16 1004.66 1005.47 1006.25 1006.55 1007.07 1007.53 1007.95 1008.38 1009.22 1009.72 1010.24 1010.95 1011.65 1011.80 1012.14
1016.39 1015.85 1015.30 1014.78 1014.20 1013.57 1012.95 1012.40 1012.12 1011.74 1011.20 1010.81 1010.52 1010.20 1009.40 1007.56 1005.52 1005.39 1005.37 1005.30 1005.07 1004.88 1004.38 1004.26 1003.83 1004.03 1004.15 1004.04 1003.80 1004.40 1004.91 1005.79 1006.41 1006.89 1007.27 1007.52 1008.01 1008.25 1009.55 1010.02 1010.51 1010.98 1011.45 1011.81 1012.01
1016.47 1015.85 1015.20 1014.54 1013.87 1013.17 1012.60 1012.18 1011.70 1011.47 1011.00 1010.62 1010.61 1010.18 1009.05 1006.64 1005.54 1005.50 1005.46 1004.79 1004.65 1004.51 1004.13 1004.03 1003.97 1003.89 1004.06 1003.97 1004.32 1004.52 1005.07 1005.91 1006.51 1006.98 1007.36 1007.74 1007.75 1008.24 1009.05 1009.62 1010.28 1010.67 1011.05 1011.44 1011.70
1016.45 1015.90 1015.30 1014.55 1013.69 1012.91 1012.21 1011.65 1011.23 1010.85 1010.61 1010.53 1010.60 1010.12 1007.73 1005.77 1005.60 1005.24 1005.00 1004.50 1004.55 1004.52 1004.23 1004.03 1004.09 1003.98 1003.99 1004.32 1004.38 1004.57 1005.08 1005.57 1006.21 1006.64 1007.17 1007.59 1007.61 1008.25 1009.06 1009.33 1009.86 1010.38 1010.68 1010.99 1011.25
1016.34 1015.79 1015.18 1014.46 1013.57 1012.62 1011.79 1011.04 1010.55 1010.34 1010.36 1010.44 1010.39 1009.62 1006.70 1005.49 1005.41 1004.92 1004.71 1004.12 1004.15 1004.32 1004.32 1004.27 1004.18 1004.26 1004.24 1004.09 1004.36 1004.68 1004.70 1005.18 1005.88 1006.11 1006.45 1007.05 1007.08 1007.73 1008.77 1009.11 1009.50 1010.12 1010.53 1010.78 1010.95
1016.32 1015.67 1014.92 1014.14 1013.19 1012.30 1011.31 1010.47 1010.32 1010.22 1010.35 1010.33 1009.90 1009.39 1006.46 1005.85 1005.50 1004.95 1004.50 1004.25 1003.89 1004.05 1004.27 1004.34 1004.21 1004.19 1004.45 1004.08 1004.15 1004.43 1004.62 1004.89 1005.06 1005.35 1005.80 1006.19 1006.37 1007.09 1008.04 1008.62 1009.05 1009.43 1009.81 1010.11 1010.16
1016.21 1015.57 1014.80 1013.95 1012.99 1012.22 1011.20 1010.18 1010.48 1010.27 1009.67 1008.77 1008.34 1007.68 1006.60 1005.99 1005.65 1004.89 1004.49 1004.09 1003.89 1003.85 1003.84 1004.42 1004.00 1003.87 1004.22 1004.40 1004.51 1004.65 1004.72 1004.74 1004.56 1004.68 1005.12 1005.26 1005.69 1006.48 1007.16 1008.03 1008.49 1008.91 1009.09 1009.28 1009.15
1016.14 1015.45 1014.63 1013.73 1012.83 1012.01 1011.73 1011.07 1011.75 1011.98 1009.98 1008.15 1007.73 1007.29 1006.70 1006.36 1005.53 1004.60 1004.46 1004.00 1003.84 1003.85 1004.16 1004.45 1003.82 1004.17 1004.36 1004.59 1004.56 1004.68 1004.80 1004.53 1004.43 1004.52 1004.64 1005.01 1005.26 1005.99 1006.35 1006.89 1007.61 1008.00 1008.19 1008.11 1008.49
1016.11 1015.49 1014.68 1013.58 1012.61 1012.11 1012.23 1011.62 1011.74 1011.56 1010.40 1007.73 1007.12 1006.65 1006.22 1005.97 1005.02 1004.28 1004.19 1003.86 1003.81 1004.02 1003.99 1003.82 1003.95 1004.22 1004.24 1004.60 1004.44 1004.54 1004.58 1004.49 1004.42 1004.40 1004.63 1004.70 1004.69 1005.27 1005.67 1006.61 1007.12 1007.41 1007.53 1008.13 1008.65
1015.97 1015.45 1014.89 1013.77 1012.81 1013.13 1012.07 1011.73 1011.59 1011.35 1009.75 1007.40 1006.57 1005.81 1005.89 1005.51 1004.60 1003.91 1003.86 1003.69 1004.00 1003.90 1004.24 1004.16 1004.11 1004.07 1004.02 1003.92 1003.96 1003.79 1004.19 1004.40 1004.16 1004.06 1004.13 1004.75 1004.33 1004.79 1005.18 1005.79 1006.44 1006.67 1007.12 1007.86 1008.66
1015.83 1015.34 1015.02 1014.78 1014.14 1013.02 1012.05 1011.72 1011.30 1011.00 1008.65 1006.66 1005.88 1005.52 1005.50 1005.15 1004.44 1003.86 1003.83 1003.59 1003.54 1003.87 1004.20 1003.78 1003.91 1003.68 1003.44 1003.36 1003.66 1003.48 1003.93 1004.21 1004.05 1004.12 1004.34 1004.58 1004.82 1004.37 1005.20 1005.24 1005.71 1006.03 1006.57 1007.83 1008.70
1015.52 1015.13 1014.91 1014.61 1014.22 1012.26 1011.78 1011.38 1010.93 1009.87 1007.53 1005.93 1005.39 1005.16 1005.03 1004.55 1003.91 1003.70 1003.52 1003.61 1003.71 1003.81 1003.98 1003.84 1003.92 1003.58 1003.18 1003.39 1003.47 1003.46 1003.70 1004.09 1004.43 1004.24 1004.11 1004.56 1004.63 1003.81 1004.62 1005.01 1005.27 1005.82 1006.72 1007.86 1008.83
1014.97 1014.61 1014.84 1014.40 1012.60 1012.05 1011.68 1010.71 1010.07 1008.73 1007.27 1006.25 1005.40 1005.11 1004.68 1004.16 1003.71 1003.38 1003.22 1003.33 1003.20 1003.60 1003.70 1004.02 1003.70 1003.54 1003.32 1003.12 1003.43 1003.27 1003.06 1003.22 1003.60 1003.81 1003.77 1004.84 1004.87 1003.53 1004.37 1005.22 1005.84 1006.58 1006.86 1007.85 1008.72
1014.33 1013.67 1013.29 1012.97 1012.51 1012.07 1011.22 1010.24 1009.24 1008.13 1007.12 1006.33 1005.61 1005.13 1004.52 1004.08 1003.73 1003.41 1003.30 1003.31 1003.57 1003.29 1003.57 1003.46 1003.56 1003.28 1002.94 1002.68 1002.54 1002.71 1002.59 1002.73 1003.21 1003.46 1003.98 1004.77 1004.20 1003.51 1004.66 1005.61 1006.42 1006.78 1007.03 1008.24 1008.83
1013.70 1013.05 1012.75 1012.22 1012.23 1012.44 1010.92 1009.60 1008.46 1007.95 1007.27 1006.50 1005.55 1005.00 1004.49 1004.18 1003.87 1003.53 1003.39 1003.24 1003.19 1003.10 1002.92 1003.34 1003.23 1003.01 1002.76 1002.41 1002.49 1002.90 1002.92 1003.08 1003.18 1004.26 1003.94 1004.01 1004.07 1003.84 1004.72 1005.87 1006.76 1007.33 1007.88 1008.28 1008.88
1013.98 1013.05 1012.21 1012.06 1012.07 1011.55 1010.44 1009.17 1008.59 1008.06 1007.37 1006.76 1006.00 1005.47 1004.72 1004.32 1003.87 1003.57 1003.37 1002.94 1002.93 1003.05 1002.71 1003.21 1002.98 1002.90 1002.50 1002.57 1002.81 1002.36 1002.72 1003.08 1003.08 1003.10 1003.14 1003.47 1003.78 1003.57 1004.53 1005.56 1006.67 1007.48 1008.10 1008.71 1009.28
1013.74 1012.66 1012.14 1012.09 1012.06 1010.89 1009.85 1009.03 1008.34 1007.72 1007.56 1006.87 1006.28 1005.75 1005.18 1004.68 1004.22 1003.71 1003.27 1002.70 1002.47 1002.62 1002.98 1003.09 1003.08 1003.03 1002.80 1002.08 1001.95 1002.66 1002.45 1002.97 1002.77 1002.91 1002.46 1002.65 1002.77 1002.97 1004.01 1005.07 1006.25 1007.63 1008.36 1008.94 1009.46
1013.90 1012.66 1012.32 1012.36 1011.39 1011.01 1009.69 1009.03 1008.37 1007.54 1007.34 1006.93 1006.60 1006.06 1005.49 1004.97 1004.32 1003.78 1003.11 1002.56 1002.23 1002.10 1002.55 1002.75 1002.57 1002.44 1002.17 1002.22 1002.42 1002.10 1001.91 1002.03 1001.90 1002.78 1003.01 1002.76 1002.62 1003.44 1004.36 1005.07 1006.18 1007.70 1008.75 1009.55 1010.17
1014.46 1013.33 1012.39 1012.18 1010.92 1010.38 1009.72 1008.82 1008.24 1007.63 1007.29 1007.02 1006.57 1006.25 1005.93 1005.23 1004.72 1003.86 1003.13 1002.16 1002.17 1002.18 1001.88 1002.38 1002.26 1002.10 1002.01 1002.36 1002.48 1001.83 1001.78 1001.79 1002.00 1002.09 1002.22 1002.05 1002.49 1003.85 1004.78 1005.65 1006.67 1007.66 1008.98 1010.13 1010.86
1014.76 1013.43 1012.37 1011.94 1011.51 1010.33 1009.51 1008.90 1008.23 1007.75 1007.40 1007.09 1006.60 1006.31 1005.92 1005.19 1004.72 1003.87 1002.96 1002.23 1002.21 1001.68 1001.69 1001.71 1001.55 1001.31 1001.01 1000.96 1001.05 1001.24 1001.47 1001.69 1001.47 1001.18 1001.10 1001.29 1001.75 1003.47 1004.60 1005.66 1006.75 1007.80 1008.99 1010.16 1010.91
1015.07 1014.53 1014.09 1012.27 1011.33 1010.46 1009.84 1009.25 1008.47 1007.84 1007.54 1007.23 1006.60 1006.35 1006.01 1005.37 1004.60 1003.98 1003.18 1002.26 1002.00 1002.04 1002.02 1001.68 1001.14 1001.31 1000.90 1000.56 1000.74 1000.67 1000.80 1001.19 1001.03 1000.64 1000.46 1000.20 1001.43 1001.47 1003.58 1004.76 1006.30 1007.57 1008.90 1009.89 1010.82
1015.97 1015.53 1014.47 1013.08 1012.11 1010.93 1010.13 1009.21 1008.65 1008.16 1007.85 1007.16 1006.88 1006.45 1006.28 1005.67 1004.55 1003.96 1003.63 1002.91 1002.27 1002.14 1002.00 1002.05 1001.57 1001.50 1000.72 1000.66 1000.64 1000.24 1000.15 1000.33 1000.39 1000.71 1000.81 1000.81 1001.23 1001.98 1003.61 1005.20 1006.46 1007.47 1008.41 1009.27 1010.22
1017.44 1016.83 1015.85 1013.65 1012.37 1011.13 1009.97 1009.48 1008.97 1008.78 1007.88 1007.53 1007.26 1006.84 1005.86 1005.36 1005.03 1004.45 1004.13 1003.49 1003.23 1003.29 1002.49 1002.14 1001.62 1001.52 1000.68 1000.57 1000.54 1000.07 999.48 999.60 999.68 999.97 999.87 1000.46 1000.28 1002.08 1003.60 1004.62 1005.83 1006.89 1007.85 1008.77 1009.71
Thickness
5749 5755 5762 5767 5772 5779 5786 5793 5800 5805 5810 5815 5819 5823 5827 5832 5840 5844 5847 5863 5866 5869 5865 5857 5854 5851 5848 5842 5847 5844 5815 5802 5805 5803 5800 5810 5799 5806 5806 5793 5791 5788 5782 5781 5772
5746 5753 5760 5767 5772 5778 5786 5792 5799 5806 5810 5815 5819 5823 5828 5833 5840 5846 5868 5871 5871 5870 5864 5856 5852 5852 5842 5842 5842 5833 5815 5816 5830 5825 5811 5813 5808 5804 5798 5792 5781 5781 5783 5778 5771
5742 5750 5757 5764 5770 5777 5784 5791 5797 5804 5810 5815 5820 5825 5831 5834 5842 5851 5871 5873 5875 5873 5871 5868 5862 5854 5842 5846 5842 5834 5819 5830 5830 5833 5827 5814 5810 5814 5802 5792 5793 5780 5781 5777 5771
5740 5747 5753 5760 5767 5775 5781 5788 5795 5801 5809 5815 5819 5824 5832 5838 5824 5862 5871 5875 5876 5877 5871 5865 5860 5847 5838 5836 5845 5832 5837 5838 5830 5832 5827 5815 5819 5809 5807 5802 5808 5794 5787 5781 5775
5735 5742 5750 5757 5764 5772 5780 5787 5792 5800 5806 5812 5819 5823 5833 5833 5842 5869 5871 5872 5873 5872 5867 5862 5855 5848 5835 5840 5843 5838 5838 5837 5834 5833 5828 5825 5813 5811 5804 5807 5804 5794 5787 5784 5781
5731 5738 5745 5753 5761 5770 5778 5786 5792 5798 5805 5811 5816 5820 5825 5820 5863 5867 5869 5869 5870 5869 5868 5868 5863 5862 5847 5845 5845 5845 5839 5833 5834 5828 5827 5818 5815 5818 5806 5809 5800 5795 5789 5787 5785
5726 5734 5742 5750 5759 5768 5777 5784 5791 5796 5804 5809 5812 5818 5819 5833 5862 5864 5867 5870 5873 5872 5865 5873 5874 5863 5858 5846 5853 5846 5827 5829 5828 5826 5820 5824 5811 5808 5815 5812 5802 5798 5795 5792 5790
5721 5728 5736 5745 5755 5765 5775 5784 5791 5797 5803 5806 5808 5813 5819 5853 5858 5862 5868 5869 5874 5875 5873 5878 5876 5865 5858 5857 5847 5834 5830 5808 5824 5826 5824 5820 5798 5812 5817 5812 5804 5801 5798 5795 5793
5716 5723 5731 5740 5751 5763 5774 5783 5791 5796 5800 5802 5806 5810 5820 5854 5847 5861 5867 5863 5868 5869 5871 5873 5868 5852 5854 5838 5826 5827 5810 5811 5813 5833 5826 5818 5806 5818 5818 5814 5808 5803 5799 5796 5796
5709 5717 5727 5737 5748 5760 5773 5782 5787 5791 5794 5798 5803 5801 5829 5829 5841 5853 5865 5865 5859 5858 5853 5851 5847 5838 5833 5832 5801 5810 5813 5817 5814 5831 5830 5820 5819 5823 5820 5817 5810 5809 5806 5801 5801
5702 5711 5721 5732 5744 5755 5769 5779 5782 5784 5790 5799 5804 5806 5818 5833 5842 5844 5855 5855 5855 5848 5831 5836 5829 5819 5825 5830 5831 5826 5819 5814 5829 5842 5830 5828 5828 5826 5827 5819 5814 5810 5809 5808 5811
5695 5705 5716 5727 5739 5751 5757 5765 5760 5761 5771 5795 5799 5804 5815 5823 5818 5835 5850 5838 5836 5822 5829 5825 5819 5829 5833 5828 5826 5822 5812 5815 5830 5838 5834 5826 5825 5831 5833 5828 5824 5818 5816 5818 5819
5687 5696 5708 5721 5734 5743 5744 5753 5755 5760 5760 5787 5796 5800 5810 5817 5816 5824 5839 5835 5825 5816 5821 5820 5826 5831 5827 5817 5817 5817 5813 5815 5817 5830 5834 5828 5824 5824 5837 5834 5831 5828 5828 5821 5814
5681 5688 5697 5712 5728 5727 5742 5746 5750 5755 5754 5775 5786 5800 5805 5811 5812 5833 5838 5832 5818 5814 5813 5816 5827 5822 5820 5818 5826 5813 5830 5824 5825 5823 5809 5826 5808 5819 5830 5829 5830 5832 5829 5822 5812
5677 5683 5688 5696 5708 5722 5734 5739 5746 5749 5732 5774 5782 5805 5800 5800 5811 5817 5832 5828 5811 5809 5814 5814 5814 5815 5815 5824 5829 5822 5831 5823 5823 5818 5814 5812 5806 5831 5821 5823 5829 5835 5836 5824 5815
5674 5679 5683 5689 5697 5718 5726 5734 5741 5731 5722 5760 5777 5779 5783 5795 5804 5812 5817 5827 5824 5809 5810 5812 5824 5824 5827 5828 5830 5835 5826 5816 5812 5813 5797 5803 5809 5826 5824 5826 5833 5838 5834 5825 5814
5673 5679 5679 5684 5709 5711 5719 5731 5717 5711 5745 5748 5758 5770 5774 5781 5791 5798 5798 5798 5796 5781 5785 5796 5807 5822 5828 5816 5823 5824 5821 5793 5788 5791 5795 5800 5798 5829 5834 5834 5831 5827 5830 5824 5816
5673 5682 5685 5690 5697 5703 5714 5717 5693 5716 5726 5749 5754 5759 5764 5775 5781 5786 5786 5784 5789 5795 5780 5780 5776 5808 5825 5820 5815 5817 5823 5797 5763 5780 5791 5797 5799 5832 5835 5834 5831 5831 5832 5819 5813
5672 5681 5683 5690 5693 5694 5706 5696 5705 5710 5727 5734 5749 5746 5755 5766 5772 5776 5777 5782 5792 5798 5783 5773 5777 5810 5818 5827 5825 5805 5803 5822 5795 5781 5785 5797 5812 5835 5834 5826 5823 5820 5819 5815 5813
5663 5674 5682 5684 5688 5694 5696 5689 5702 5711 5723 5730 5725 5739 5741 5754 5761 5765 5766 5785 5788 5795 5807 5788 5774 5799 5812 5819 5815 5818 5821 5798 5796 5769 5769 5789 5790 5814 5818 5820 5818 5815 5814 5811 5808
5662 5677 5675 5676 5680 5688 5683 5692 5698 5712 5716 5720 5723 5728 5736 5743 5752 5755 5765 5783 5789 5793 5795 5791 5785 5784 5797 5801 5802 5800 5802 5795 5805 5795 5788 5783 5800 5840 5827 5828 5822 5813 5812 5811 5807
5654 5670 5666 5666 5675 5665 5680 5685 5694 5707 5715 5720 5724 5727 5730 5739 5745 5751 5758 5773 5792 5794 5780 5793 5788 5770 5785 5807 5806 5809 5807 5810 5795 5779 5785 5796 5809 5830 5827 5831 5826 5812 5808 5805 5799
5645 5646 5655 5657 5664 5666 5673 5683 5692 5700 5705 5710 5714 5723 5727 5732 5731 5747 5759 5786 5786 5785 5781 5786 5775 5760 5768 5782 5788 5793 5802 5809 5806 5804 5783 5792 5809 5819 5822 5820 5818 5811 5803 5794 5786
5636 5647 5646 5648 5649 5662 5669 5675 5683 5698 5700 5708 5712 5720 5721 5727 5738 5742 5756 5778 5784 5792 5787 5793 5782 5777 5765 5780 5798 5788 5793 5797 5806 5790 5801 5807 5825 5809 5813 5812 5810 5807 5801 5789 5784
5628 5627 5623 5642 5649 5656 5663 5669 5675 5682 5696 5702 5707 5710 5715 5717 5730 5735 5753 5770 5780 5776 5780 5787 5774 5778 5790 5796 5792 5797 5797 5791 5792 5810 5802 5825 5813 5842 5821 5819 5812 5808 5798 5789 5780
5624 5621 5624 5634 5637 5648 5650 5664 5671 5680 5684 5693 5697 5708 5711 5713 5729 5735 5746 5756 5764 5775 5774 5774 5765 5766 5777 5786 5784 5786 5798 5798 5802 5800 5803 5809 5813 5830 5825 5816 5805 5802 5797 5790 5783
5603 5605 5613 5631 5638 5648 5658 5661 5667 5672 5687 5692 5696 5698 5708 5722 5731 5740 5749 5757 5760 5752 5764 5766 5766 5761 5766 5779 5776 5766 5793 5800 5807 5812 5819 5801 5835 5822 5812 5810 5805 5800 5796 5789 5782